Back to catalog

GLOBALSTAR M052

AliveCommunicationsMEO
NORAD 25773·PAYLOAD·🇺🇸 United States

Launched Jun 10, 1999 from Cape Canaveral Space Force Station

Loading…

Next Passes (next 24 hours)

TLE

FreshSource: Space-Track

Epoch: Sep 14, 2026, 15:43 UTC

1 25773U 99031D   26257.65536477 -.00000047  00000-0  63449-3 0  9992
2 25773  51.9910 346.3418 0002543 195.2844 314.2168 11.15065452529200

Track GLOBALSTAR M052 in real time with AllMySat

Download on the App Store